Yiewsley, United Kingdom

6:31 PM GMT on November 23, 2017 (GMT +0000)
Yiewsley

Weather History for 03772 - October, 2011

Change the Weather History Date:

Sunday, October 2, 2011

  Actual Average Record
Temperature  
Mean Temperature 68 °F -  
Max Temperature 82 °F 57 °F - ()
Min Temperature 54 °F 46 °F - ()
Cooling Degree Days 3    
Growing Degree Days 18 (Base 50)    
Moisture  
Dew Point 54 °F    
Average Humidity 64    
Maximum Humidity 94    
Minimum Humidity 24    
Precipitation  
Precipitation 0.00 in - - ()
Sea Level Pressure  
Sea Level Pressure 30.23 in    
Wind  
Wind Speed 4 mph ()    
Max Wind Speed 15 mph    
Max Gust Speed -    
Visibility 8.4 miles    
Events      
T = Trace of Precipitation, MM = Missing Value Source: Averaged Metar Reports

Daily Weather History Graph

Daily Weather History Graph

Search for Another Location

Airport or City:

Trip Planner

Search our weather history database for the weather conditions in past years. The results will help you decide how hot, cold, wet, or windy it might be!

Date:

Astronomy

Oct. 02, 2011 Rise Set
Actual Time 7:03 AM BST 6:38 PM BST
Civil Twilight 6:30 AM BST 7:11 PM BST
Nautical Twilight 5:51 AM BST 7:50 PM BST
Astronomical Twilight 5:11 AM BST 8:29 PM BST
Moon 1:38 PM BST (10/2) 9:39 PM BST (10/2)
Length of Visible Light 12h 41m
Length of Day
11h 34m
Waxing Crescent, 32% of the Moon is Illuminated
Oct 2
Waxing Crescent
Oct 4
First Quarter
Oct 12
Full
Oct 20
Last Quarter
Oct 26
New

Hourly Weather History & Observations

Time (BST) Temp. Heat Index Dew Point Humidity Pressure Visibility Wind Dir Wind Speed Gust Speed Precip Events Conditions
12:20 AM 59.0 °F - 55.4 °F 88% 30.27 in - Calm Calm - N/A   Clear
12:50 AM 60 °F - 55 °F 77% 30.28 in 6 mi North 1.2 mph - -   Light Haze
12:50 AM 59.0 °F - 53.6 °F 82% 30.27 in - North 2.3 mph - N/A   Clear
1:20 AM 60.8 °F - 53.6 °F 77% 30.27 in - NNW 2.3 mph - N/A   Clear
1:50 AM 59.0 °F - 53.6 °F 82% 30.27 in - North 2.3 mph - N/A   Clear
2:20 AM 59.0 °F - 53.6 °F 82% 30.27 in - Calm Calm - N/A   Clear
2:50 AM 57.2 °F - 53.6 °F 88% 30.27 in - Calm Calm - N/A   Clear
3:20 AM 57.2 °F - 53.6 °F 88% 30.27 in - Calm Calm - N/A   Clear
3:50 AM 57.2 °F - 53.6 °F 88% 30.27 in - North 3.5 mph - N/A   Clear
4:20 AM 55.4 °F - 51.8 °F 88% 30.27 in - ENE 2.3 mph - N/A   Clear
4:50 AM 55.4 °F - 53.6 °F 94% 30.27 in - North 2.3 mph - N/A   Clear
5:20 AM 55.4 °F - 53.6 °F 94% 30.27 in - Calm Calm - N/A   Clear
5:50 AM 55.4 °F - 51.8 °F 88% 30.27 in - Calm Calm - N/A   Clear
6:20 AM 55.4 °F - 53.6 °F 94% 30.27 in - Variable 2.3 mph - N/A   Clear
6:50 AM 56 °F - 53 °F 86% 30.27 in 5 mi NE 2.3 mph - -   Light Haze
6:50 AM 55.4 °F - 51.8 °F 88% 30.27 in 5.0 mi Variable 2.3 mph - N/A   Unknown
7:20 AM 55.4 °F - 51.8 °F 88% 30.27 in 5.0 mi North 3.5 mph - N/A   Unknown
7:50 AM 57.2 °F - 51.8 °F 82% 30.27 in 5.6 mi North 3.5 mph - N/A   Unknown
8:20 AM 60.8 °F - 53.6 °F 77% 30.27 in 5.6 mi East 2.3 mph - N/A   Unknown
8:50 AM 62.6 °F - 55.4 °F 77% 30.27 in 5.6 mi Calm Calm - N/A   Unknown
9:20 AM 66.2 °F - 55.4 °F 68% 30.27 in 5.6 mi Calm Calm - N/A   Unknown
9:50 AM 67 °F - 54 °F 53% 30.27 in 10 mi South 3.5 mph - -  
9:50 AM 66.2 °F - 55.4 °F 68% 30.27 in - Variable 3.5 mph - N/A   Clear
10:20 AM 68.0 °F - 55.4 °F 64% 30.27 in - SSE 5.8 mph - N/A   Clear
10:50 AM 71.6 °F - 55.4 °F 57% 30.27 in - SSE 4.6 mph - N/A   Clear
11:20 AM 73.4 °F - 57.2 °F 57% 30.27 in - SSW 6.9 mph - N/A   Clear
11:50 AM 75.2 °F - 55.4 °F 50% 30.24 in - SSW 4.6 mph - N/A   Clear
12:20 PM 77.0 °F - 55.4 °F 47% 30.24 in - South 6.9 mph - N/A   Clear
12:50 PM 80 °F - 55 °F 32% 30.24 in 17 mi South 6.9 mph - -  
12:50 PM 78.8 °F - 53.6 °F 42% 30.24 in - SSW 6.9 mph - N/A   Clear
1:20 PM 80.6 °F 80.3 °F 53.6 °F 39% 30.24 in - SSW 9.2 mph - N/A   Clear
1:50 PM 80.6 °F - 51.8 °F 37% 30.21 in - SW 11.5 mph - N/A   Clear
2:20 PM 80.6 °F 80.3 °F 53.6 °F 39% 30.21 in - SW 11.5 mph - N/A   Clear
2:50 PM 80.6 °F - 51.8 °F 37% 30.21 in - SW 12.7 mph - N/A   Clear
3:20 PM 80.6 °F - 50.0 °F 34% 30.21 in - SSW 13.8 mph - N/A   Clear
3:50 PM 82 °F - 51 °F 24% 30.21 in 19 mi SW 15.0 mph - -  
3:50 PM 80.6 °F - 50.0 °F 34% 30.21 in - SW 13.8 mph - N/A   Clear
4:20 PM 80.6 °F - 48.2 °F 32% 30.21 in - SSW 13.8 mph - N/A   Clear
4:50 PM 78.8 °F - 48.2 °F 34% 30.18 in - SW 13.8 mph - N/A   Clear
5:20 PM 78.8 °F - 50.0 °F 36% 30.18 in - SW 12.7 mph - N/A   Clear
5:50 PM 77.0 °F - 51.8 °F 41% 30.18 in - SW 9.2 mph - N/A   Clear
6:20 PM 73.4 °F - 53.6 °F 50% 30.18 in - SSW 8.1 mph - N/A   Clear
6:50 PM 74 °F - 54 °F 39% 30.20 in 14 mi SSW 10.4 mph - -  
6:50 PM 71.6 °F - 53.6 °F 53% 30.18 in - SW 9.2 mph - N/A   Clear
7:20 PM 69.8 °F - 53.6 °F 56% 30.18 in - South 8.1 mph - N/A   Clear
7:50 PM 68.0 °F - 55.4 °F 64% 30.18 in - SSW 8.1 mph - N/A   Clear
8:20 PM 68.0 °F - 55.4 °F 64% 30.18 in 6.2 mi SSW 8.1 mph - N/A   Unknown
8:50 PM 66.2 °F - 55.4 °F 68% 30.18 in 6.2 mi SSW 8.1 mph - N/A   Unknown
9:20 PM 66.2 °F - 55.4 °F 68% 30.18 in 6.2 mi SW 8.1 mph - N/A   Unknown
9:50 PM 67 °F - 56 °F 58% 30.19 in 12 mi SSW 8.1 mph - -  
9:50 PM 64.4 °F - 55.4 °F 73% 30.18 in - SW 9.2 mph - N/A   Clear
10:20 PM 64.4 °F - 55.4 °F 73% 30.18 in - SW 8.1 mph - N/A   Clear
10:50 PM 62.6 °F - 55.4 °F 77% 30.18 in - WSW 6.9 mph - N/A   Clear
11:20 PM 62.6 °F - 55.4 °F 77% 30.18 in - SW 4.6 mph - N/A   Clear
11:50 PM 62.6 °F - 55.4 °F 77% 30.18 in - Variable 2.3 mph - N/A   Clear